Regional Weather Roundup
Issued by NWS Upton, NY

Current Version | Previous Version | Graphics & Text | Print | Product List | Glossary Off
Versions: 1 2 3 4 5 6 7 8 9 10 11 12 13 14 15 16 17 18 19 20 21 22 23 24 25 26 27 28 29 30 31 32 33 34 35 36 37 38 39 40 41 42 43 44 45 46 47 48 49 50

408
ASUS41 KOKX 102008
RWROKX

REGIONAL WEATHER ROUNDUP
NATIONAL WEATHER SERVICE NEW YORK NY
300 PM EST SAT DEC 10 2016

NOTE: "FAIR" INDICATES FEW OR NO CLOUDS BELOW 12,000 FEET WITH NO
SIGNIFICANT WEATHER AND/OR OBSTRUCTIONS TO VISIBILITY.

NYZ071-072-176-178-NJZ106-104-102100-
NEW YORK CITY METRO AREA

CITY           SKY/WX    TMP DP  RH WIND       PRES   REMARKS
Central Park   CLOUDY    35  16  45 MISG      30.36R
Wall St Helipt CLOUDY    37  19  48 W8        30.36S WCI  31
Bronx Bot Gard   N/A     36  18  48 W5        30.35F WCI  32
LaGuardia APRT PTSUNNY   36  18  48 NW16G25   30.35R WCI  26
Kennedy INTL   PTSUNNY   36  15  42 W15G24    30.36R WCI  27
Breezy Point     N/A     34 N/A N/A W12G20      N/A  WCI  25
Newark/Liberty PTSUNNY   35  17  47 W12       30.35S WCI  27
Teterboro      PTSUNNY   34  16  47 W10       30.34S WCI  26
$$

NYZ177-179-078>081-102100-
LONG ISLAND NEW YORK

CITY           SKY/WX    TMP DP  RH WIND       PRES   REMARKS
Jones Beach      N/A     34 N/A N/A NW20G25     N/A  WCI  22
Matinecock PT  NOT AVBL
Farmingdale    CLOUDY    34  17  50 W9        30.35R WCI  27
MacArthur/ISP  PTSUNNY   34  16  47 NW12      30.33R WCI  25
Shirley        LGT RAIN  34  16  47 W10       30.34R WCI  26
Westhampton    NOT AVBL
Southampton      N/A     36  19  51 NW10      30.30S WCI  28
Bridgehampton  NOT AVBL
East Hampton     N/A     33  14  45 NW12G17   30.32R WCI  24
Montauk          N/A     33  15  47 W12G23    30.32R WCI  24
$$

NYZ052-065-067-102100-
HUDSON VALLEY

CITY           SKY/WX    TMP DP  RH WIND       PRES   REMARKS
White Plains   MOSUNNY   33  16  49 W14       30.31R WCI  23
Newburgh       NOT AVBL
Montgomery     MOSUNNY   34  17  50 NW6       30.31R WCI  29
Poughkeepsie   CLOUDY    32  13  45 VRB6      30.32S WCI  26
Albany         MOSUNNY   27  10  49 NW14G22   30.33R WCI  16
$$

NJZ001-105-106-008-010-013-015-019>022-104-102100-
NEW JERSEY

CITY           SKY/WX    TMP DP  RH WIND       PRES   REMARKS
Newark/Liberty PTSUNNY   35  17  47 W12       30.35S WCI  27
Teterboro      PTSUNNY   34  16  47 W10       30.34S WCI  26
Caldwell       CLOUDY    35  16  45 W9        30.35R WCI  28
Somerville     CLOUDY    35  16  45 VRB5      30.34S WCI  31
Linden         CLOUDY    34  19  54 W8        30.37R WCI  27
Sussex         CLOUDY    30  23  75 VRB5      30.32R WCI  25
Andover          N/A     31  16  54 VRB5      30.32S WCI  26
Trenton        PTSUNNY   35  15  44 NW10      30.36R WCI  27
Millville      CLOUDY    37  17  44 W12       30.39R WCI  29
Atlantic City  CLOUDY    36  15  42 W9        30.38R WCI  29
Wrightstown    MOSUNNY   36  16  44 NW9       30.34R WCI  29
Toms River     CLOUDY    37  17  44 W13       30.37R WCI  29
Belmar         PTSUNNY   36  16  44 W13       30.36R WCI  27
$$

PAZ047>061-062-071-102100-
EASTERN PENNSYLVANIA

CITY           SKY/WX    TMP DP  RH WIND       PRES   REMARKS
Philadelphia   MOSUNNY   37  12  35 NW16      30.39R WCI  28
Allentown      CLOUDY    34  13  41 W12       30.35S WCI  25
Scranton       MOSUNNY   28  22  78 SW8       30.30S WCI  20
$$

CTZ002-004>006-009-010-012-RIZ004-006-007-MAZ004-011-015-102100-
SOUTHERN NEW ENGLAND
 IN CT

CITY           SKY/WX    TMP DP  RH WIND       PRES   REMARKS
Bradley INTL   PTSUNNY   31   7  36 W18G26    30.31R WCI  19
Hartford       MOSUNNY   31  10  41 NW9       30.33R WCI  23
Danbury        MOSUNNY   31  14  49 W8        30.32R WCI  23
Wtrbury/Oxford PTSUNNY   28  10  47 NW9       30.30R WCI  20
Bridgeport     MOSUNNY   35  13  40 W13       30.33R WCI  26
Meriden        SUNNY     33  10  38 W9        30.33R WCI  25
New Haven      MOSUNNY   32  13  45 NW9       30.33R WCI  24
Chester          N/A     30   9  40 W14G20    30.30R WCI  20
Groton         SUNNY     35   9  33 NW17G25   30.31R WCI  25
Wilimantic     MOSUNNY   31   9  39 NW10G18   30.30R WCI  22

 IN RI

CITY           SKY/WX    TMP DP  RH WIND       PRES   REMARKS
Providence     PTSUNNY   29   5  36 W10       30.29R WCI  20
Block Island   MOSUNNY   32  14  47 NW13G21   30.30R WCI  22
Westerly       SUNNY     33   6  32 NW8       30.31R WCI  26
 IN MA

CITY           SKY/WX    TMP DP  RH WIND       PRES   REMARKS
Boston         PTCLDY    29   5  36 W14G22    30.28R WCI  18
Worcester      SUNNY     25   2  37 W10       30.22R WCI  15
Westfield      SUNNY     30   7  37 W15       30.30R WCI  19
Provincetown   CLOUDY    29  14  53 NW16G23   30.27R WCI  17
Nantucket      CLEAR     30   9  41 NW15G21   30.26R WCI  19
$$

ANZ330-335-338-340-345-350-353-355-102100-
COASTAL MARINE OBSERVATIONS


STATION/POSITION TIME  SKY/WX   TEMP    WIND        PRES    VSBY  WAVE
                                AIR SEA DIR/SP/G                  HT/PER
                 (UTC)          (F)     (DEG/KT/KT) (MB)    (MI)  (FT/S)
NY HARB ENTRANCE 1850            36 51  280/ 17/ 21 1027.1          2/ 3
20 S FIRE ISLAND 1950            36 52  280/ 17/ 23 1027.0          3/ 5
GREAT SOUTH BAY  1930            34 39                N/A
23 SSW MONTAUK P 1850            35 54  290/ 17/ 23 1026.3          4/ 6
15 E BARNEGAT LI 1930               51                N/A           2/ 3
HUDSON CANYON    1850            39 55              1026.9          5/ 6
KINGS POINT      1930            34 45              1027.3
EXECUTION ROCKS  1945            36     270/ 12/ 17   N/A
CENTRAL LI SOUND 1900            33 48  300/ 12/ 17   N/A           2/ 3
EASTERN LI SOUND NOT AVBL
ROBBINS REEF     1930            34     290/ 16/ 19 1027.9
$$


>>>>>>>>>>>>>>>>>>>>>>>>>>>> KEY <<<<<<<<<<<<<<<<<<<<<<<<<<<
>                                                          <
>     SKY/WX - Sky Condition/Present Weather               <
>     TMP    - Temperature in Fahrenheit                   <
>     DP     - Dew Point in Fahrenheit                     <
>     RH     - Relative Humidity in Percent                <
>     WIND   - Direction (from) and Speed in MPH           <
>     PRES   - Mean Sea Level Pressure (inches of Hg)      <
>     WCI    - Wind Chill Index                            <
>     VSB    - VISIBILITY IN MILES                         <
>     HX     - HEAT INDEX                                  <
>     TC     - TEMPERATURE IN CELSIUS                      <
>     VRB    - VARIABLE WIND DIRECTION                     <
>                                                          <
>>>>>>>>>>>>>>>>>>>>>>>>>>>> KEY <<<<<<<<<<<<<<<<<<<<<<<<<<<




USA.gov is the U.S. government's official web portal to all federal, state and local government web resources and services.